COSMOS 1486

导读

COSMOS 1486是苏联(CIS前身)于1983年8月3日发射的人造卫星,隶属于苏联"宇宙"(COSMOS)系列卫星。该系列是苏联规模最大的卫星家族,涵盖军事侦察、科学试验等多种用途,统一命名方式可隐藏卫星真实使命,提升保密性。 作为冷战时期苏联航天活动的产物,COSMOS 1486承载着特定太空任务需求,如今多数同系列卫星已退役,部分成为空间碎片,是人类航天发展历程的见证者。

基本信息
目录编号:
14240
目录名称:
COSMOS 1486
国际标识:
1983-079A
轨道中心:
EARTH
卫星名称:
COSMOS 1486
卫星全名:
--
卫星状态:
在轨 (已飞行15748 天)
发射日期:
1983-08-03 UTC
国别 :
俄罗斯(独联体) (CIS)
星等 :
--
该卫星已列入 空间交会检测服务 Space Conjunction Data Service (SCDS) ,当前飞行风险评估等级: 无高风险
轨道信息
数据来源 国际轨道数据 AOE轨道数据
星历时间 2026-09-14T06:29:44+0800
5小时前
查看轨道信息
2026-09-13T04:00:00+0800
1天前
查看轨道信息
半长轴 7153.573km 7153.575km
偏心率 0.0012858 0.0012959
轨道倾角 74.055° 74.056°
近地点辐角 147.779° 149.450°
升交点赤经 248.593° 250.612°
平近点角 241.986° 299.912°
近地点 766.237km 766.167km
远地点 784.635km 784.709km
周期 100.356分钟 100.356分钟
每日圈数 14.34889 14.348884
详细信息
使用方式:
暂无
2D轨道图
3D轨道图
轨道高度分析图
轨道倾角分析图
轨道综合分析图
查看轨道综合分析图
交会数据列表
事件ID 空间交会对象 最接近时刻(TCA) 交会距离 交会风险概率(CRP) 交会风险指数(CRI) 操作
CDM_260915-123801-424003-827124
2026-09-15T
12:38:08+0000
1.046 km
极远距离
2.262068E-5 中风险 0.62
CDM_260914-112101-424004-296328
2026-09-14T
11:21:15+0000
2.544 km
极远距离
1.453809E-6 低风险 0.38
CDM_260916-014501-424003-749924
2026-09-16T
01:45:30+0000
2.318 km
极远距离
1.430834E-6 低风险 0.38
与全量物体交会距离演化趋势 订阅飞行安全评估服务
与全量物体交会风险概率演化趋势 订阅飞行安全评估服务